Tracking 35334 objects as of 13-Sep-2026
HD Live streaming from Space Station
objects crossing your sky now

FLOCK 4A 5


FLOCK 4A 5 is no longer on orbit
FLOCK 4A 5 is classified as:


NORAD ID: 44095
Int'l Code: 2019-018T
Launch date: April 1, 2019
Source: United States (US)
Launch site: SRIHARIKOTA (SRI)
Decay date: 2023-03-15
Your satellite tracking list
Your tracking list is empty




NASA's NSSDC Master Catalog

Two Line Element Set (TLE):
1 44095U 19018T   23070.30486111  .14351254  24490-5  81196-3 0  9994
2 44095  97.2353 136.2360 0011290 271.1566 152.6013 16.41236080219848
Source of the keplerian elements: AFSPC